[Iaude] MPEC V198: 2013 VO13 [a=1.07,e=0.29,i=23.9,H=22.75]
    mpec at marsden.cfa.harvard.edu 
    mpec at marsden.cfa.harvard.edu
       
    Sat Nov 11 09:19:54 EST 2023
    
    
  
M.P.E.C. 2023-V198                            Issued 2023 November 11, 14:18 UT
     The Minor Planet Electronic Circulars contain information on unusual
         minor planets, routine data on comets and natural satellites,
         and occasional editorial announcements.  They are published
    on behalf of Division F of the International Astronomical Union by the
          Minor Planet Center, Smithsonian Astrophysical Observatory,
                          Cambridge, MA 02138, U.S.A.
			  
             Prepared using the Tamkin Foundation Computer Network
                              MPC at CFA.HARVARD.EDU
            URL https://www.minorplanetcenter.net/    ISSN 1523-6714
                                   2013 VO13                                    
                           Revision to MPEC 2013-V81                            
Additional Observations:
     K13V13O  C2023 11 02.21213 23 10 24.15 +37 06 26.0          21.7 GVEV198G96
     K13V13O  C2023 11 02.21725 23 10 23.62 +37 05 56.2          22.1 GVEV198G96
     K13V13O  C2023 11 02.22238 23 10 23.09 +37 05 27.1          21.4 GVEV198G96
     K13V13O  C2023 11 09.34418423 03 25.700+24 26 40.01         21.11wXEV198F51
     K13V13O  C2023 11 09.35769823 03 24.999+24 25 03.94         21.63wXEV198F51
     K13V13O  C2023 11 09.38647823 03 23.570+24 21 40.74         21.39wXEV198F51
Observer details:
F51 Pan-STARRS 1, Haleakala.  Observers J. Bulger, T. Lowe, P. Minguez, A.
    Schultz, I. Smith.  Measurers K. Chambers, T. de Boer, J. Fairlamb, H.
    Gao, M. Huber, C.-C. Lin, E. Magnier, Y. Ramanjooloo, R. Wainscoat, R.
    Weryk.  1.8-m Ritchey-Chretien + CCD.
G96 Mt. Lemmon Survey.  Observer J. B. Fazekas.  Measurers B. Gray, D. Rankin,
    F. C. Shelly.  1.5-m reflector + 10K CCD.
First and last observations above in comparison with prediction:
Residuals in seconds of arc (or two decimals in degrees), reference and Delta-T
231102 G96 2.14+ 1.57+    231109 F51 1.93+ 0.96+    E2023-P67   +0.95 days
Orbital elements:
2013 VO13                                                Earth MOID = 0.0509 AU
Epoch 2023 Sept. 13.0 TT = JDT 2460200.5                Veres                   
M 226.43288              (2000.0)            P               Q                  
n   0.88520354     Peri.  283.12080     -0.83147191     -0.45906387             
a   1.0742548      Node   230.51861     +0.51565064     -0.84731682             
e   0.2894636      Incl.   23.91726     -0.20678222     -0.26704788             
P   1.11           H   22.75          G   0.15           U   1                  
Residuals in seconds of arc
131111 703  0.1+  0.0     131111 C77  0.6-  0.3+    131112 926  0.1+  0.1+
131111 703  0.1+  0.4-    131111 C77  0.4+  0.5+    131116 807  0.1-  0.1+
131111 703  0.5-  0.0     131111 C77  0.1+  0.2+    131116 807  0.2-  0.1-
131111 703  0.0   0.8+    131111 I58  0.0   0.9-    131116 807  0.1-  0.0
131111 703  0.4+  0.4-    131111 I58  0.4-  1.0-    131116 807  0.2-  0.3-
131111 703  0.2-  0.1+    131111 I58  0.4-  1.0-    131116 807  0.1-  0.1-
131111 703  0.1-  1.5+    131112 H01  0.0   0.2-    131118 807  0.0   0.4-
131111 703  1.0-  0.6+    131112 H01  0.1-  0.0     131118 807  0.1+  0.4-
131111 703  1.0-  0.3+    131112 H01  0.2-  0.1+    131118 807  0.1+  0.1-
131111 703  0.1-  0.3-    131112 H01  0.0   0.1+    231102 G96  0.2+  0.1-
131111 703  0.3-  0.5+    131112 448  0.2-  0.2+    231102 G96  0.1-  0.5-
131111 703  1.6-  0.6-    131112 448  0.1+  0.0     231102 G96  0.4-  0.1-
131111 703  0.8+  1.2-    131112 448  0.2-  0.0     231109 F51  0.2+  0.6+
131111 203  0.2-  0.1+    131112 926  0.1-  0.4+    231109 F51  0.1+  0.0
131111 203  0.0   0.5+    131112 926  0.1+  0.1+    231109 F51  0.3+  0.4+
Ephemeris:
2013 VO13                a,e,i = 1.07, 0.29, 24                  q = 0.7633
Date    TT    R. A. (2000) Decl.     Delta      r    Elong.  Phase     V
2023 10 12    00 01 32.2 +57 54 09   0.3443  1.2389   127.6    39.6    22.5
...
2023 10 27    23 21 02.4 +45 46 51   0.2560  1.1816   132.3    38.5    21.7
...
2023 11 04    23 08 09.4 +34 11 13   0.2222  1.1477   130.1    41.4    21.4
...
2023 11 10    23 03 04.8 +23 09 41   0.2060  1.1209   124.8    46.5    21.3
2023 11 11    23 02 35.5 +21 10 27   0.2041  1.1163   123.6    47.6    21.3
2023 11 12    23 02 12.0 +19 09 20   0.2025  1.1117   122.4    48.8    21.3
...
2023 11 18    23 01 42.3 +06 41 47   0.1985  1.0836   113.6    56.7    21.5
...
2023 11 26    23 05 00.5 -09 20 55   0.2064  1.0448   100.6    68.2    21.8
...
2023 12 11    23 17 11.9 -32 58 23   0.2482  0.9700    79.3    86.1    22.7
A. U. Tomatic                (C) Copyright 2023 MPC           M.P.E.C. 2023-V198
    
    
More information about the Iaude
mailing list